Location: Arcizac
(43.0933°N, 0.0112°E)
Time: 18:36:45
(UTC+00:00)

Cosmos 614 Rocket - Pass Details

Date: 14 December 2019
Orbit: 733 x 763 km, 74.1° (Epoch: 19 January)

Event Time Altitude Azimuth Distance (km) Brightness Sun altitude
Rises 17:55:45 0° 210° (SSW) 3,161 7.9 -15.8°
Reaches altitude 10° 17:58:08 10° 214° (SW) 2,239 7.2 -16.2°
Maximum altitude 18:03:07 58° 293° (WNW) 861 4.5 -17.1°
Drops below altitude 10° 18:08:08 10° 13° (NNE) 2,245 6.1 -18.0°
Enters shadow 18:08:23 - 13° (NNE) 2,343 6.2 -18.0°
